Date String (YYYY-MM-DD hh:mm:ss) UTC,Instrument flags,Ambient pressure (hPa),Sample flow (lpm),Bypass flow (lpm),Sample temperature (°C),Ambient temperature (°C),ASC tube jacket temperature (°C),LED temperature (°C),Box temperature (°C),Sample RH (%),Span deviation,Mass concentration (μg/m³),Mass concentration (μg/m³),Mass concentration (μg/m³)
DateTimeUTC,F1_M11,P_M11,Q1_M11,Q2_M11,T1_M11,T2_M11,T3_M11,T4_M11,T5_M11,U1_M11,ZSPAN_M11,X0_M11,X2_M11,X1_M11
2022-01-25 01:00:00,,0822.0,5.01,0.00,22.1,21.5,00.0,31.1,23.9,09.3,0000.0,0012.71,0002.54,0001.69
2022-01-25 01:01:00,,0821.9,4.99,0.00,22.1,21.5,00.0,31.1,23.9,09.3,0000.0,0011.96,0002.54,0001.71
2022-01-25 01:02:00,,0821.8,5.00,0.00,22.1,21.5,00.0,31.1,23.9,09.3,0000.0,0011.68,0002.54,0001.72
2022-01-25 01:03:00,,0821.8,5.00,0.00,22.1,21.5,00.0,31.1,23.9,09.3,0000.0,0011.16,0002.50,0001.71
2022-01-25 01:04:00,,0821.9,5.00,0.00,22.1,21.5,00.0,31.1,23.9,09.3,0000.0,0010.71,0002.48,0001.70
2022-01-25 01:05:00,,0821.9,5.00,0.00,22.1,21.5,00.0,31.1,23.9,09.3,0000.0,0010.27,0002.49,0001.69
2022-01-25 01:06:00,,0822.0,5.00,0.00,22.1,21.5,00.0,31.1,23.9,09.3,0000.0,0010.54,0002.53,0001.68
2022-01-25 01:07:00,,0822.0,5.00,0.00,22.1,21.5,00.0,31.1,23.8,09.3,0000.0,0009.27,0002.50,0001.66
2022-01-25 01:08:00,,0822.0,5.01,0.00,22.1,21.5,00.0,31.1,23.8,09.3,0000.0,0008.77,0002.49,0001.66
2022-01-25 01:09:00,,0822.0,5.00,0.00,22.1,21.5,00.0,31.0,23.8,09.3,0000.0,0008.89,0002.49,0001.67
2022-01-25 01:10:00,,0822.1,4.99,0.00,22.1,21.5,00.0,31.0,23.8,09.3,0000.0,0009.28,0002.50,0001.66
2022-01-25 01:11:00,,0822.1,5.00,0.00,22.1,21.5,00.0,31.0,23.8,09.3,0000.0,0009.38,0002.52,0001.66
2022-01-25 01:12:00,,0822.1,5.00,0.00,22.1,21.5,00.0,31.0,23.8,09.3,0000.0,0009.25,0002.51,0001.64
2022-01-25 01:13:00,,0822.1,5.00,0.00,22.1,21.5,00.0,31.0,23.9,09.3,0000.0,0009.28,0002.53,0001.63
2022-01-25 01:14:00,,0822.1,5.00,0.00,22.1,21.5,00.0,31.0,23.9,09.2,0000.0,0009.19,0002.64,0001.63
2022-01-25 01:15:00,,0822.0,5.00,0.00,22.1,21.5,00.0,31.0,23.9,09.3,0000.0,0009.19,0002.65,0001.64
2022-01-25 01:16:00,,0822.1,5.00,0.00,22.1,21.5,00.0,31.0,23.9,09.2,0000.0,0009.35,0002.66,0001.63
2022-01-25 01:17:00,,0822.1,5.00,0.00,22.1,21.5,00.0,31.0,23.9,09.3,0000.0,0009.66,0002.73,0001.63
2022-01-25 01:18:00,,0822.1,4.99,0.00,22.1,21.5,00.0,31.0,23.9,09.3,0000.0,0009.84,0002.81,0001.63
2022-01-25 01:19:00,,0822.2,4.99,0.00,22.1,21.5,00.0,31.0,23.9,09.3,0000.0,0009.84,0002.83,0001.63
2022-01-25 01:20:00,,0822.2,4.99,0.00,22.1,21.5,00.0,31.0,23.9,09.3,0000.0,0009.92,0002.85,0001.61
2022-01-25 01:21:00,,0822.2,5.01,0.00,22.1,21.5,00.0,31.0,23.9,09.3,0000.0,0009.82,0002.86,0001.60
2022-01-25 01:22:00,,0822.2,5.00,0.00,22.1,21.5,00.0,31.0,23.9,09.2,0000.0,0009.90,0002.88,0001.59
2022-01-25 01:23:00,,0822.2,5.00,0.00,22.1,21.5,00.0,31.1,23.9,09.2,0000.0,0010.90,0002.92,0001.59
2022-01-25 01:24:00,,0822.2,5.00,0.00,22.1,21.6,00.0,31.1,23.9,09.2,0000.0,0011.54,0002.87,0001.59
2022-01-25 01:25:00,,0822.2,5.00,0.00,22.1,21.5,00.0,31.1,23.9,09.2,0000.0,0011.22,0002.85,0001.59
2022-01-25 01:26:00,,0822.2,4.99,0.00,22.1,21.5,00.0,31.1,23.9,09.2,0000.0,0011.14,0002.90,0001.60
2022-01-25 01:27:00,,0822.2,5.00,0.00,22.1,21.5,00.0,31.1,23.9,09.2,0000.0,0011.31,0002.92,0001.60
2022-01-25 01:28:00,,0822.2,5.00,0.00,22.1,21.5,00.0,31.1,23.9,09.2,0000.0,0010.92,0002.85,0001.61
2022-01-25 01:29:00,,0822.2,5.01,0.00,22.1,21.5,00.0,31.1,23.9,09.2,0000.0,0010.36,0002.78,0001.60
2022-01-25 01:30:00,,0822.2,5.00,0.00,22.1,21.5,00.0,31.1,23.9,09.2,0000.0,0010.26,0002.78,0001.60
2022-01-25 01:31:00,,0822.2,4.99,0.00,22.1,21.5,00.0,31.1,23.9,09.2,0000.0,0010.24,0002.79,0001.60
2022-01-25 01:32:00,,0822.2,5.00,0.00,22.1,21.5,00.0,31.1,24.0,09.2,0000.0,0010.63,0002.77,0001.61
2022-01-25 01:33:00,,0822.3,5.00,0.00,22.1,21.6,00.0,31.1,24.0,09.2,0000.0,0010.83,0002.74,0001.62
2022-01-25 01:34:00,,0822.3,5.00,0.00,22.1,21.6,00.0,31.1,24.0,09.2,0000.0,0009.85,0002.72,0001.61
2022-01-25 01:35:00,,0822.3,5.00,0.00,22.2,21.6,00.0,31.1,24.0,09.2,0000.0,0009.05,0002.69,0001.61
2022-01-25 01:36:00,,0822.3,5.00,0.00,22.2,21.6,00.0,31.1,24.0,09.2,0000.0,0008.96,0002.67,0001.60
2022-01-25 01:37:00,,0822.4,4.99,0.00,22.2,21.6,00.0,31.1,24.0,09.2,0000.0,0009.10,0002.66,0001.59
2022-01-25 01:38:00,,0822.4,5.00,0.00,22.2,21.6,00.0,31.1,24.0,09.2,0000.0,0008.94,0002.72,0001.59
2022-01-25 01:39:00,,0822.3,4.99,0.00,22.2,21.6,00.0,31.1,24.0,09.2,0000.0,0008.68,0002.67,0001.59
2022-01-25 01:40:00,,0822.3,5.00,0.00,22.2,21.6,00.0,31.1,24.0,09.2,0000.0,0008.81,0002.64,0001.59
2022-01-25 01:41:00,,0822.4,5.00,0.00,22.2,21.6,00.0,31.1,24.0,09.2,0000.0,0008.75,0002.64,0001.60
2022-01-25 01:42:00,,0822.3,4.99,0.00,22.2,21.6,00.0,31.1,24.0,09.4,0000.0,0010.19,0002.67,0001.62
2022-01-25 01:43:00,,0822.3,5.00,0.00,22.2,21.6,00.0,31.1,24.0,09.4,0000.0,0010.39,0002.74,0001.65
2022-01-25 01:44:00,,0822.3,5.00,0.00,22.2,21.6,00.0,31.1,24.0,09.4,0000.0,0011.05,0002.80,0001.68
2022-01-25 01:45:00,,0822.3,5.00,0.00,22.2,21.6,00.0,31.1,24.0,09.4,0000.0,0011.58,0002.85,0001.71
2022-01-25 01:46:00,,0822.4,5.00,0.00,22.2,21.6,00.0,31.1,24.0,09.4,0000.0,0011.78,0002.88,0001.73
2022-01-25 01:47:00,,0822.4,5.01,0.00,22.2,21.6,00.0,31.1,24.0,09.4,0000.0,0011.78,0002.92,0001.74
2022-01-25 01:48:00,,0822.4,5.00,0.00,22.2,21.6,00.0,31.1,24.0,09.4,0000.0,0012.12,0002.98,0001.77
2022-01-25 01:49:00,,0822.4,5.01,0.00,22.2,21.6,00.0,31.1,24.0,09.4,0000.0,0012.74,0002.97,0001.80
2022-01-25 01:50:00,,0822.4,5.00,0.00,22.2,21.6,00.0,31.1,24.0,09.4,0000.0,0012.84,0003.00,0001.82
2022-01-25 01:51:00,,0822.4,5.00,0.00,22.2,21.6,00.0,31.1,24.0,09.4,0000.0,0013.06,0003.00,0001.84
2022-01-25 01:52:00,,0822.4,5.00,0.00,22.2,21.6,00.0,31.1,24.0,09.3,0000.0,0013.30,0003.02,0001.85
2022-01-25 01:53:00,,0822.4,5.01,0.00,22.2,21.6,00.0,31.1,24.0,09.4,0000.0,0011.83,0003.00,0001.85
2022-01-25 01:54:00,,0822.4,5.00,0.00,22.2,21.6,00.0,31.1,24.0,09.4,0000.0,0012.06,0003.00,0001.83
2022-01-25 01:55:00,,0822.4,5.00,0.00,22.2,21.6,00.0,31.1,24.0,09.4,0000.0,0011.54,0002.96,0001.81
2022-01-25 01:56:00,,0822.4,5.00,0.00,22.2,21.6,00.0,31.1,24.0,09.4,0000.0,0011.38,0002.94,0001.81
2022-01-25 01:57:00,,0822.4,5.00,0.00,22.2,21.6,00.0,31.1,24.0,09.4,0000.0,0011.39,0002.96,0001.82
2022-01-25 01:58:00,,0822.3,5.01,0.00,22.2,21.6,00.0,31.1,24.0,09.4,0000.0,0011.39,0002.95,0001.83
2022-01-25 01:59:00,,0822.4,5.01,0.00,22.2,21.6,00.0,31.1,24.0,09.3,0000.0,0011.17,0002.92,0001.82
